Home   Weather   Oakland   Past weeks

Flag for USA Past Weather in Oakland, California, USA — Yesterday and Last 2 Weeks

Now
43 °F

Passing clouds.


Feels Like: 41 °F
Forecast: 44 / 55 °F
Wind: 3 mph from Northeast

Location: Metro Oakland International Airport

Current Time: Feb 27, 2017 at 5:42:10 am

Latest Report: Feb 27, 2017 at 4:53 am


Visibility: 10 mi

Pressure: 29.92 "Hg

Humidity: 97%

Dew Point: 42 °F

Location of OaklandLocation

Past Weather in Oakland — Graph

°F

Oakland Temperature Yesterday

Maximum temperature yesterday: 58 °F (at 1:53 pm)
Minimum temperature yesterday: 40 °F (at 5:53 am)
Average temperature yesterday: 50 °F

High & Low Weather Summary for the Past Weeks

 TemperatureHumidityPressure
High65 °F (Feb 14, 2:53 pm)100% (Feb 16, 5:53 am)30.29 "Hg (Feb 16, 5:53 am)
Low38 °F (Feb 24, 3:53 am)32% (Feb 12, 2:53 pm)29.15 "Hg (Feb 17, 3:53 pm)
Average54 °F78%29.99 "Hg
* Reported Feb 12 3:53 am — Feb 27 3:53 am, Oakland, Weather by CustomWeather, © 2017

Note: Actual official high and low records may vary slightly from our data, if they occured in-between our weather recording intervals... More about our weather records

Advertising

Oakland Weather History for the Previous 24 Hours

Scroll right to see more
 ConditionsComfort  
Time TempWeatherWind HumidityBarometerVisibility
3:53 am
Mon, Feb 27
45 °FPassing clouds.5 mph93%29.91 "Hg10 mi
3:38 am46 °FMostly cloudy.3 mph93%29.92 "Hg10 mi
2:53 am46 °FPassing clouds.3 mph93%29.92 "Hg10 mi
2:02 am47 °FOvercast.No wind93%29.94 "Hg10 mi
1:38 am47 °FLight rain. Overcast.7 mph93%29.95 "Hg10 mi
12:53 am47 °FMostly cloudy.5 mph90%29.93 "Hg10 mi
11:53 pm
Sun, Feb 26
50 °FOvercast.9 mph83%29.93 "Hg10 mi
10:53 pm50 °FOvercast.7 mph83%29.93 "Hg10 mi
9:53 pm48 °FLight rain. Mostly cloudy.12 mph89%29.94 "Hg9 mi
9:26 pm50 °FLight rain. Mostly cloudy.13 mph83%29.93 "Hg9 mi
8:53 pm51 °FPartly cloudy.3 mph77%29.93 "Hg10 mi
8:13 pm50 °FPassing clouds.7 mph77%29.93 "Hg10 mi
7:53 pm52 °FPartly cloudy.10 mph72%29.92 "Hg10 mi
6:53 pm52 °FPassing clouds.7 mph75%29.93 "Hg10 mi
6:12 pm52 °FPassing clouds.10 mph72%29.94 "Hg10 mi
5:53 pm52 °FBroken clouds.9 mph75%29.93 "Hg10 mi
4:53 pm53 °FBroken clouds.21 mph72%29.93 "Hg10 mi
3:53 pm55 °FPartly sunny.17 mph64%29.93 "Hg10 mi
2:53 pm58 °FBroken clouds.16 mph58%29.94 "Hg10 mi
1:53 pm58 °FScattered clouds.14 mph56%29.95 "Hg10 mi
12:53 pm56 °FPassing clouds.6 mph58%29.97 "Hg10 mi
11:53 am54 °FPassing clouds.5 mph62%29.99 "Hg10 mi
10:53 am53 °FPassing clouds.7 mph59%30.01 "Hg10 mi
9:53 am52 °FPassing clouds.7 mph61%30.01 "Hg10 mi
8:53 am49 °FSunny.5 mph69%30.02 "Hg10 mi
7:53 am44 °FSunny.3 mph85%30.02 "Hg10 mi
6:53 am41 °FSunny.No wind82%30.01 "Hg10 mi
5:53 am40 °FClear.No wind89%30.00 "Hg10 mi
Weather by CustomWeather, © 2017

See weather overviewHow to use our weather pages